Weather observations for the past three days for
McMinnville Warren County Memorial Airport
Imperial (Metric)
Date Time (cdt) Wind (mph) Vis. (mi.) Weather Sky Cond. Temperature (ºF) Relative Humidity Wind Chill (°F) Heat Index (°F) Pressure Precipitation (in)
Air Dwpt 6 hour altimeter (in) sea level (mb) 1 hr 3 hr 6 hr
Max. Min.
24 08:15 SW 5 8.00 Mostly Cloudy FEW007 SCT014 BKN030 73.4 73.4 100% 30.2 0.0
24 07:55 SW 6 10.00 Mostly Cloudy BKN007 BKN017 BKN030 73.4 71.6 94% 30.2 0.0
24 07:35 SW 6 8.00 Overcast BKN006 OVC035 73.4 71.6 94% 30.2 0.0
24 07:15 SW 5 8.00 Overcast BKN005 BKN013 OVC037 73.4 73.4 100% 30.19 0.0
24 06:55 Calm 7.00 Mostly Cloudy BKN005 BKN017 73.4 73.4 100% 30.18 0.0 0.01
24 06:35 Calm 4.00 Fog/Mist BKN005 BKN017 OVC023 73.4 73.4 100% 30.18 0.0
24 06:15 Calm 4.00 Fog/Mist BKN006 BKN013 OVC023 73.4 71.6 94% 30.18 0.0
24 05:55 Calm 5.00 Fog/Mist BKN005 BKN013 OVC019 73.4 71.6 94% 30.17 0.0
24 05:35 Calm 7.00 Overcast BKN004 OVC007 73.4 71.6 94% 30.17 0.0
24 05:15 SW 3 6.00 Fog/Mist BKN006 OVC011 71.6 71.6 100% 30.17 0.0
24 04:55 Calm 5.00 Fog/Mist BKN008 OVC012 71.6 71.6 100% 30.16 0.0
24 04:35 Calm 7.00 Overcast OVC010 71.6 71.6 100% 30.15 0.0
24 04:15 Calm 9.00 Mostly Cloudy BKN012 71.6 71.6 100% 30.15 0.0
24 03:55 Calm 7.00 Mostly Cloudy SCT015 SCT042 BKN120 71.6 71.6 100% 30.14 0.0
24 03:35 Calm 6.00 Fog/Mist SCT005 BKN017 OVC120 71.6 71.6 100% 30.14 0.0
24 03:15 Calm 7.00 Overcast BKN005 OVC016 71.6 71.6 100% 30.14 0.0
24 02:55 Calm 8.00 Overcast BKN006 OVC013 71.6 71.6 100% 30.14 0.0
24 02:35 Calm 9.00 Overcast SCT006 BKN013 OVC020 71.6 71.6 100% 30.15 0.0
24 02:15 Calm 9.00 Overcast BKN017 BKN022 OVC030 71.6 71.6 100% 30.15 0.0
24 01:55 Calm 10.00 Overcast SCT020 SCT029 OVC044 69.8 69.8 100% 30.15 0.0
24 01:35 Calm 10.00 Mostly Cloudy BKN045 BKN060 69.8 69.8 100% 30.14 0.0
24 01:15 Calm 10.00 Mostly Cloudy FEW029 SCT043 BKN050 71.6 69.8 94% 30.14 0.0
24 00:55 SW 5 9.00 Overcast FEW039 BKN055 OVC110 71.6 71.6 100% 30.14 0.0 0.01
24 00:35 Calm 10.00 Overcast FEW031 OVC047 71.6 69.8 94% 30.15 0.0
24 00:15 W 6 2.50 Fog/Mist BKN031 BKN046 OVC060 71.6 71.6 100% 30.15 0.0
23 23:55 NW 3 8.00 Mostly Cloudy FEW009 SCT037 BKN047 71.6 71.6 100% 30.15 0.0
23 23:35 NW 6 5.00 Fog/Mist FEW018 BKN041 OVC070 73.4 71.6 94% 30.15 0.0
23 23:15 W 7 9.00 Overcast BKN020 BKN034 OVC070 73.4 71.6 94% 30.15 0.0
23 22:55 Calm 9.00 Overcast SCT018 BKN022 OVC033 73.4 71.6 94% 30.14 0.0
23 22:35 Calm 10.00 Overcast SCT021 BKN026 OVC041 73.4 71.6 94% 30.14 0.0
23 22:15 Calm 10.00 Overcast BKN022 BKN026 OVC031 73.4 71.6 94% 30.14 0.0
23 21:55 Calm 10.00 NULL NULL 73.4 71.6 94% 30.13 0.0
23 21:35 Calm 10.00 Mostly Cloudy FEW029 BKN044 BKN060 73.4 71.6 94% 30.13 0.0
23 21:15 Calm 10.00 Mostly Cloudy FEW029 SCT038 BKN055 73.4 71.6 94% 30.12 0.0
23 20:55 Calm 10.00 Overcast FEW021 SCT036 OVC070 75.2 71.6 89% 75 30.12 0.0
23 20:35 Calm 10.00 NULL NULL 75.2 71.6 89% 75 30.12 0.0
23 20:15 Calm 10.00 NULL NULL 75.2 71.6 89% 75 30.11 0.0
23 19:55 Calm 10.00 Overcast BKN024 OVC065 75.2 71.6 89% 75 30.1 0.0
23 19:35 Calm 10.00 Overcast FEW024 SCT055 OVC070 77 71.6 83% 78 30.1 0.0
23 19:15 Calm 10.00 Overcast BKN060 OVC070 77 71.6 83% 78 30.1 0.0
23 18:55 Calm 10.00 Overcast FEW048 SCT055 OVC070 77 71.6 83% 78 30.1 0.0
23 18:35 W 3 10.00 Overcast SCT048 BKN055 OVC070 77 71.6 83% 78 30.09 0.0
23 18:15 Calm 8.00 Overcast OVC055 77 69.8 79% 79 30.08 0.0
23 17:55 W 3 10.00 Overcast SCT048 OVC055 78.8 69.8 74% 81 30.08 0.0
23 17:35 W 6 10.00 Overcast BKN046 OVC055 78.8 69.8 74% 81 30.08 0.0
23 17:10 Calm 10.00 Overcast BKN047 OVC055 78.8 69.8 74% 81 30.08 0.0
23 16:55 Calm 10.00 Overcast SCT048 OVC060 78.8 68 70% 81 30.09 0.0
23 16:35 W 3 10.00 Overcast BKN060 OVC100 78.8 68 70% 81 30.08 0.0
23 16:15 W 5 10.00 Partly Cloudy SCT060 SCT100 SCT120 78.8 68 70% 81 30.08 0.0
23 15:55 Vrbl 3 10.00 Fair CLR 78.8 68 70% 81 30.08 0.0
23 15:35 Calm 10.00 A Few Clouds FEW080 78.8 69.8 74% 81 30.08 0.0
23 15:15 SE 6 10.00 Overcast BKN080 OVC090 77 69.8 79% 79 30.08 0.0
23 14:55 Vrbl 3 10.00 Mostly Cloudy FEW015 BKN080 78.8 69.8 74% 81 30.09 0.0
23 14:35 SW 5 10.00 Partly Cloudy SCT014 78.8 71.6 79% 82 30.09 0.0
23 14:15 Calm 10.00 Fair CLR 77 69.8 79% 79 30.1 0.0
23 13:55 Calm 10.00 A Few Clouds FEW011 77 71.6 83% 78 30.1 0.0 0.01
23 13:35 Calm 9.00 A Few Clouds FEW008 FEW055 75.2 71.6 89% 75 30.11 0.0
23 13:15 SW 6 8.00 A Few Clouds FEW007 73.4 71.6 94% 30.12 0.0
23 12:50 SW 3 3.00 Fog/Mist CLR 71.6 69.8 94% 30.13 0.0
23 12:35 Calm 2.50 Fog/Mist CLR 71.6 69.8 94% 30.13 0.0
23 12:15 S 5 4.00 Fog/Mist FEW044 71.6 69.8 94% 30.14 0.0
23 11:55 Calm 4.00 Fog/Mist FEW043 71.6 69.8 94% 30.14 0.0 0.04
23 11:35 SW 5 4.00 Fog/Mist CLR 71.6 69.8 94% 30.14 0.0
23 11:15 SW 3 5.00 Fog/Mist CLR 73.4 69.8 89% 30.14 0.0
23 10:50 SW 3 9.00 Partly Cloudy FEW090 SCT120 73.4 69.8 89% 30.14 0.0
23 10:35 S 3 10.00 Mostly Cloudy BKN090 BKN120 73.4 69.8 89% 30.13 0.0
23 10:15 Calm 10.00 Mostly Cloudy BKN090 73.4 71.6 94% 30.12 0.0
23 09:55 Calm 10.00 Mostly Cloudy FEW004 FEW080 BKN095 71.6 69.8 94% 30.12 0.0
23 09:35 SW 3 8.00 A Few Clouds FEW004 FEW095 71.6 71.6 100% 30.12 0.0
23 09:15 Calm 6.00 Fog/Mist FEW005 FEW095 71.6 71.6 100% 30.11 0.0
23 08:50 Calm 6.00 Fog/Mist FEW014 SCT018 SCT027 71.6 69.8 94% 30.11 0.0
23 08:35 W 3 2.50 Fog/Mist SCT018 BKN031 BKN044 71.6 69.8 94% 30.11 0.0
23 08:15 Calm 3.00 Fog/Mist FEW033 SCT044 BKN050 71.6 69.8 94% 30.11 0.0
23 07:55 SW 5 3.00 Fog/Mist FEW045 FEW050 FEW120 71.6 69.8 94% 30.11 0.0
23 07:35 Calm 3.00 Fog/Mist SCT035 BKN045 BKN050 69.8 69.8 100% 30.09 0.0
23 07:15 Calm 7.00 Mostly Cloudy FEW022 SCT044 BKN110 69.8 69.8 100% 30.09 0.0
23 06:55 Calm 9.00 Mostly Cloudy BKN022 69.8 69.8 100% 30.08 0.0
23 06:35 Calm 9.00 A Few Clouds FEW021 69.8 69.8 100% 30.07 0.0
23 06:15 Calm 9.00 Fair CLR 69.8 69.8 100% 30.07 0.0
23 05:55 Calm 10.00 Fair CLR 69.8 68 94% 30.07 0.0
23 05:35 Calm 10.00 Partly Cloudy SCT024 SCT039 SCT045 69.8 69.8 100% 30.07 0.0
23 05:15 Calm 10.00 Overcast BKN025 OVC040 69.8 69.8 100% 30.07 0.0
23 04:55 Calm 10.00 Overcast FEW025 BKN032 OVC100 69.8 69.8 100% 30.07 0.0
23 04:30 Calm 10.00 Mostly Cloudy FEW032 SCT050 BKN100 69.8 69.8 100% 30.06 0.0
23 04:15 Calm 9.00 Mostly Cloudy FEW004 FEW045 BKN100 69.8 68 94% 30.06 0.0
23 03:55 Calm 6.00 Fog/Mist FEW004 SCT036 BKN049 69.8 69.8 100% 30.05 0.0
23 03:35 Calm 8.00 Overcast BKN037 OVC055 68 68 100% 30.05 0.0
23 03:15 Calm 9.00 Mostly Cloudy FEW039 BKN055 BKN065 68 68 100% 30.05 0.0
23 02:55 Calm 7.00 A Few Clouds FEW060 68 68 100% 30.05 0.0
23 02:35 Calm 7.00 Partly Cloudy SCT060 68 68 100% 30.04 0.0
23 02:15 Calm 8.00 Fair CLR 68 68 100% 30.05 0.0
23 01:55 Calm 5.00 Fog/Mist SCT043 68 68 100% 30.05 0.0
23 01:35 Calm 3.00 Fog/Mist SCT043 68 68 100% 30.05 0.0
23 01:15 Calm 6.00 Fog/Mist FEW037 FEW043 FEW060 68 68 100% 30.05 0.0
23 00:55 Calm 8.00 Fair CLR 68 68 100% 30.05 0.0
23 00:35 Calm 9.00 Fair CLR 68 68 100% 30.06 0.0
23 00:15 Calm 8.00 A Few Clouds FEW120 69.8 69.8 100% 30.06 0.0
22 23:55 Calm 9.00 Partly Cloudy SCT120 69.8 68 94% 30.06 0.0
22 23:35 Calm 10.00 Partly Cloudy FEW039 SCT100 SCT120 69.8 68 94% 30.06 0.0
22 23:15 Calm 10.00 Partly Cloudy SCT100 69.8 68 94% 30.06 0.0
22 22:55 Calm 10.00 Fair CLR 71.6 68 88% 30.05 0.0
22 22:35 Calm 10.00 Fair CLR 71.6 69.8 94% 30.05 0.0
22 22:15 Calm 10.00 Fair CLR 71.6 69.8 94% 30.04 0.0
22 21:55 Calm 10.00 Fair CLR 71.6 69.8 94% 30.05 0.0
22 21:35 Calm 10.00 Fair CLR 71.6 69.8 94% 30.04 0.0
22 21:15 Calm 10.00 Fair CLR 71.6 69.8 94% 30.03 0.0
22 20:55 Calm 10.00 Fair CLR 73.4 69.8 89% 30.02 0.0
22 20:35 Calm 10.00 NULL NULL 73.4 71.6 94% 30.02 0.0
22 20:15 Calm 10.00 Fair CLR 75.2 71.6 89% 75 30.01 0.0
22 19:55 Calm 10.00 Fair CLR 75.2 71.6 89% 75 30.01 0.0
22 19:35 Calm 10.00 Fair CLR 77 71.6 83% 78 30.01 0.0
22 19:15 SW 5 10.00 Fair CLR 77 71.6 83% 78 30.01 0.0
22 18:55 Calm 10.00 A Few Clouds FEW090 77 69.8 79% 79 30 0.0
22 18:35 SW 6 10.00 Fair CLR 78.8 69.8 74% 81 29.99 0.0
22 18:15 SW 6 10.00 Fair CLR 78.8 69.8 74% 81 29.99 0.0
22 17:55 SW 5 10.00 Partly Cloudy SCT090 78.8 69.8 74% 81 29.99 0.0
22 17:35 SW 6 10.00 Mostly Cloudy FEW024 BKN090 78.8 69.8 74% 81 30 0.0
22 17:15 SW 3 10.00 Partly Cloudy SCT090 80.6 71.6 74% 85 30 0.0
22 16:55 Vrbl 5 10.00 Fair CLR 78.8 71.6 79% 82 29.99 0.0
22 16:35 SW 6 10.00 A Few Clouds FEW023 FEW110 78.8 69.8 74% 81 29.98 0.0
22 16:15 W 7 10.00 Partly Cloudy FEW090 SCT110 80.6 71.6 74% 85 29.99 0.0
22 15:55 Vrbl 6 10.00 Mostly Cloudy BKN100 80.6 69.8 70% 84 30 0.0
22 15:35 SW 5 10.00 Partly Cloudy SCT100 80.6 69.8 70% 84 30.02 0.0
22 14:55 SW 7 10.00 A Few Clouds FEW023 FEW031 80.6 69.8 70% 84 30.02 0.0
22 14:35 SW 6 G 13 10.00 Partly Cloudy SCT023 SCT031 80.6 71.6 74% 85 30.02 0.0
22 14:15 W 7 10.00 A Few Clouds FEW026 FEW090 80.6 71.6 74% 85 30.02 0.0
22 13:55 Vrbl 7 10.00 Fair CLR 80.6 71.6 74% 85 30.03 0.0
22 13:30 SW 9 10.00 Partly Cloudy FEW017 BKN070 SCT080 80.6 71.6 74% 85 30.04 0.0
22 13:15 SW 5 10.00 Mostly Cloudy FEW017 FEW041 BKN070 78.8 69.8 74% 81 30.05 0.0
22 12:55 Vrbl 6 G 14 10.00 Mostly Cloudy FEW016 BKN041 BKN070 78.8 71.6 79% 82 30.05 0.0
22 12:35 SW 7 10.00 Overcast FEW016 SCT028 OVC040 78.8 71.6 79% 82 30.05 0.0
22 12:15 SW 8 10.00 Overcast SCT016 BKN028 OVC036 77 71.6 83% 78 30.06 0.0
22 11:55 SW 6 10.00 Overcast FEW014 FEW026 OVC034 77 71.6 83% 78 30.06 0.0
22 11:35 Vrbl 6 10.00 Overcast FEW014 SCT026 OVC032 77 71.6 83% 78 30.06 0.0
22 11:15 SW 7 10.00 Overcast FEW013 BKN025 OVC032 77 71.6 83% 78 30.06 0.0
22 10:55 Vrbl 7 10.00 Mostly Cloudy FEW010 SCT014 BKN022 75.2 71.6 89% 75 30.06 0.0
22 10:35 SW 7 10.00 Overcast FEW009 BKN014 OVC025 75.2 71.6 89% 75 30.06 0.0
22 10:15 SW 6 10.00 Overcast FEW008 SCT012 OVC022 75.2 71.6 89% 75 30.06 0.0
22 09:55 Vrbl 7 10.00 Overcast SCT009 OVC022 75.2 71.6 89% 75 30.05 0.0
22 09:35 Calm 10.00 Overcast SCT007 BKN015 OVC023 73.4 71.6 94% 30.05 0.0
22 09:15 Vrbl 5 8.00 Overcast BKN008 BKN014 OVC026 73.4 71.6 94% 30.05 0.0
22 08:55 SW 3 9.00 Overcast BKN007 OVC012 73.4 71.6 94% 30.05 0.0
22 08:35 Calm 9.00 Overcast BKN006 BKN011 OVC023 71.6 71.6 100% 30.05 0.0
22 08:15 Calm 1.75 Fog/Mist OVC005 71.6 71.6 100% 30.04 0.0
22 07:55 Calm 1.50 Fog/Mist OVC004 71.6 71.6 100% 30.04 0.0
22 07:35 SW 3 0.75 Fog/Mist OVC004 71.6 71.6 100% 30.04 0.0
22 07:10 Calm 0.75 Fog/Mist OVC003 71.6 71.6 100% 30.03 0.0
22 06:55 SW 5 1.00 Fog/Mist OVC003 71.6 69.8 94% 30.03 0.0
22 06:35 Calm 2.00 Fog/Mist OVC004 71.6 69.8 94% 30.03 0.0
22 06:15 SW 5 9.00 Overcast BKN007 OVC013 71.6 69.8 94% 30.03 0.0
22 05:55 Calm 9.00 Overcast BKN009 OVC014 71.6 69.8 94% 30.03 0.0
22 05:35 Calm 10.00 Overcast OVC010 71.6 69.8 94% 30.02 0.0
22 05:15 Calm 10.00 Overcast OVC011 71.6 69.8 94% 30.02 0.0
22 04:55 Calm 10.00 Overcast OVC012 71.6 69.8 94% 30.02 0.0
22 04:35 Calm 10.00 Overcast OVC013 71.6 69.8 94% 30.02 0.0
22 04:15 Calm 10.00 Overcast OVC013 71.6 69.8 94% 30.01 0.0
22 03:55 Calm 10.00 Overcast OVC016 71.6 69.8 94% 30.01 0.0
22 03:35 NW 5 10.00 Overcast BKN017 OVC022 71.6 69.8 94% 30.01 0.0
22 03:15 NW 5 10.00 Overcast BKN022 OVC027 69.8 69.8 100% 30.01 0.0
22 02:55 Calm 10.00 Overcast BKN025 OVC029 69.8 69.8 100% 30.01 0.0
22 02:35 Calm 10.00 Partly Cloudy SCT028 69.8 69.8 100% 30.01 0.0
22 02:15 Calm 6.00 Fog/Mist SCT030 69.8 69.8 100% 30.01 0.0
22 01:55 Calm 6.00 Fog/Mist BKN031 69.8 69.8 100% 30.01 0.0
22 01:15 Calm 8.00 A Few Clouds FEW120 71.6 69.8 94% 30.02 0.0
22 00:55 Calm 10.00 Partly Cloudy SCT120 71.6 69.8 94% 30.02 0.0
22 00:35 Calm 10.00 Fair CLR 71.6 69.8 94% 30.03 0.0
22 00:15 Calm 10.00 Fair CLR 71.6 69.8 94% 30.02 0.0
21 23:55 Calm 10.00 Fair CLR 71.6 69.8 94% 30.02 0.0
21 23:35 SW 3 10.00 Fair CLR 71.6 69.8 94% 30.03 0.0
21 23:15 Calm 10.00 Fair CLR 71.6 71.6 100% 30.03 0.0
21 22:55 Calm 10.00 A Few Clouds FEW075 71.6 71.6 100% 30.03 0.0
21 22:35 Calm 10.00 Mostly Cloudy BKN075 BKN110 71.6 71.6 100% 30.02 0.0
21 22:15 Calm 10.00 Mostly Cloudy BKN075 BKN085 BKN110 71.6 71.6 100% 30.02 0.0
21 21:55 Calm 10.00 Mostly Cloudy FEW070 BKN080 71.6 71.6 100% 30.02 0.0
21 21:35 Calm 10.00 Mostly Cloudy SCT090 BKN120 73.4 69.8 89% 30.03 0.0
21 21:15 Calm 10.00 Mostly Cloudy SCT095 BKN120 73.4 71.6 94% 30.03 0.0
21 20:55 SE 5 10.00 NULL NULL 73.4 71.6 94% 30.04 0.0
21 20:35 Calm 10.00 Overcast FEW055 SCT065 OVC090 73.4 71.6 94% 30.04 0.0
21 20:15 Calm 9.00 Mostly Cloudy SCT065 BKN080 BKN100 73.4 71.6 94% 30.02 0.0
21 19:55 SW 3 10.00 Mostly Cloudy BKN110 73.4 71.6 94% 30.01 0.0
21 19:35 SW 7 10.00 Overcast FEW010 OVC110 73.4 71.6 94% 30.02 0.0
21 19:15 N 3 10.00 Overcast FEW055 FEW070 OVC120 75.2 71.6 89% 75 30 0.0
21 18:55 Calm 6.00 Fog/Mist FEW043 SCT055 BKN120 73.4 69.8 89% 30 0.0
21 18:35 NW 7 G 15 8.00 A Few Clouds FEW047 FEW060 FEW070 75.2 69.8 83% 75 30 0.0
21 18:15 NW 7 10.00 A Few Clouds FEW070 80.6 71.6 74% 85 30 0.0
21 17:55 N 5 10.00 Fair CLR 82.4 71.6 70% 87 29.99 0.0
21 17:35 NE 5 10.00 Fair CLR 82.4 71.6 70% 87 29.99 0.0
21 16:55 NE 5 10.00 Fair CLR 82.4 68 62% 85 29.97 0.0
21 16:35 Vrbl 3 10.00 Fair CLR 84.2 69.8 62% 88 29.98 0.0
21 16:15 SE 5 10.00 Fair CLR 86 69.8 59% 91 29.98 0.0
21 15:55 Vrbl 5 10.00 Fair CLR 86 71.6 62% 92 29.98 0.0
21 15:35 Vrbl 3 10.00 Fair CLR 84.2 69.8 62% 88 29.99 0.0
21 15:15 Vrbl 7 10.00 Fair CLR 84.2 73.4 70% 91 30 0.0
21 14:55 SE 7 10.00 A Few Clouds FEW090 84.2 73.4 70% 91 30.01 0.0
21 14:35 Calm 10.00 Partly Cloudy SCT090 82.4 69.8 66% 86 30.01 0.0
21 14:15 Calm 10.00 Fair CLR 82.4 71.6 70% 87 30.01 0.0
21 13:55 Calm 10.00 A Few Clouds FEW100 80.6 71.6 74% 85 30.02 0.0
21 13:35 Calm 10.00 Fair CLR 77 73.4 89% 78 30.03 0.0
21 13:15 Calm 6.00 Partly Cloudy with Haze FEW031 FEW044 SCT055 78.8 71.6 79% 82 30.04 0.0
21 12:55 NW 8 10.00 Mostly Cloudy SCT031 BKN065 82.4 69.8 66% 86 30.04 0.0
21 12:35 Vrbl 5 10.00 A Few Clouds FEW065 84.2 69.8 62% 88 30.04 0.0
21 12:15 Calm 10.00 A Few Clouds FEW032 84.2 69.8 62% 88 30.05 0.0
21 11:55 W 5 10.00 A Few Clouds FEW027 FEW034 82.4 69.8 66% 86 30.06 0.0
21 11:35 Calm 10.00 Partly Cloudy SCT026 82.4 69.8 66% 86 30.06 0.0
21 11:15 W 5 10.00 Partly Cloudy SCT025 SCT060 82.4 69.8 66% 86 30.07 0.0
21 10:55 W 6 10.00 Mostly Cloudy BKN025 BKN039 BKN050 80.6 71.6 74% 85 30.07 0.0
21 10:35 W 7 9.00 Mostly Cloudy BKN022 BKN031 BKN037 80.6 71.6 74% 85 30.07 0.0
21 10:15 Calm 10.00 Mostly Cloudy SCT019 SCT024 BKN030 80.6 71.6 74% 85 30.07 0.0
21 09:55 SW 6 10.00 Mostly Cloudy BKN017 BKN021 BKN026 80.6 71.6 74% 85 30.06 0.0 0.01
21 09:35 Calm 10.00 Mostly Cloudy BKN015 BKN023 78.8 71.6 79% 82 30.06 0.0
21 09:15 Vrbl 3 10.00 Mostly Cloudy SCT015 BKN023 78.8 71.6 79% 82 30.06 0.0
21 08:55 Calm 10.00 Overcast BKN013 OVC019 77 71.6 83% 78 30.06 0.0
21 08:35 Calm 10.00 Mostly Cloudy BKN012 BKN018 77 73.4 89% 78 30.07 0.0
Date Time (cdt) Wind (mph) Vis. (mi.) Weather Sky Cond. Air Dwpt Max. Min. Relative Humidity Wind Chill (°F) Heat Index (°F) altimeter (in) sea level (mb) 1 hr 3 hr 6 hr
6 hour
Temperature (ºF) Pressure Precipitation (in)